Printer-friendly version

IAU Minor Planet Center

Minor Planet Center

MPEC 2002-S43 : 2002 SV

The following Minor Planet Electronic Circular may be linked-to from your own Web pages, but must not otherwise be redistributed electronically.


Read MPEC 2002-S42 Read MPEC 2002-S44


M.P.E.C. 2002-S43                                Issued 2002 Sept. 24, 19:17 UT

     The Minor Planet Electronic Circulars contain information on unusual
         minor planets and routine data on comets.  They are published
   on behalf of Commission 20 of the International Astronomical Union by the
          Minor Planet Center, Smithsonian Astrophysical Observatory,
                          Cambridge, MA 02138, U.S.A.

             Prepared using the Tamkin Foundation Computer Network

                              MPC@CFA.HARVARD.EDU
          URL http://cfa-www.harvard.edu/iau/mpc.html  ISSN 1523-6714

                                    2002 SV

Observations:
     K02S00V* C2002 09 23.46436 20 34 47.84 -17 07 35.4          19.3        608
     K02S00V  C2002 09 23.47537 20 34 49.52 -17 06 13.9          19.0        608
     K02S00V  C2002 09 23.48593 20 34 51.26 -17 04 54.9          19.8        608
     K02S00V  C2002 09 24.06654 20 36 28.36 -15 55 36.5          16.9 R      734
     K02S00V  C2002 09 24.06758 20 36 28.61 -15 55 28.9          17.2 R      734
     K02S00V  C2002 09 24.06861 20 36 28.74 -15 55 21.1          17.4 R      734
     K02S00V  C2002 09 24.06973 20 36 29.20 -15 55 13.2          18.2 R      734
     K02S00V  C2002 09 24.07161 20 36 29.14 -15 54 58.8          17.4 R      734
     K02S00V  C2002 09 24.07285 20 36 29.31 -15 54 51.1          18.3 R      734
     K02S00V  C2002 09 24.07392 20 36 29.46 -15 54 43.2          18.5 R      734
     K02S00V  C2002 09 24.07502 20 36 29.70 -15 54 35.1          16.9 R      734
     K02S00V  C2002 09 24.07631 20 36 29.83 -15 54 26.6          17.3 R      734
     K02S00V  C2002 09 24.07742 20 36 29.99 -15 54 18.1          18.2 R      734
     K02S00V  C2002 09 24.07876 20 36 30.19 -15 54 08.6          17.4 R      734
     K02S00V  C2002 09 24.07984 20 36 30.34 -15 54 01.2          16.8 R      734
     K02S00V  C2002 09 24.08093 20 36 30.53 -15 53 53.1          17.1 R      734
     K02S00V  C2002 09 24.08197 20 36 30.64 -15 53 44.5          17.2 R      734
     K02S00V 4C2002 09 24.11656 20 36 36.76 -15 49 35.2                      673
     K02S00V 4C2002 09 24.12095 20 36 37.35 -15 49 04.4                      673
     K02S00V  C2002 09 24.16318 20 36 42.04 -15 44 05.6          17.2 R      649
     K02S00V  C2002 09 24.16834 20 36 42.77 -15 43 28.9          17.4 R      649
     K02S00V  C2002 09 24.17278 20 36 43.41 -15 42 56.9          17.2 R      649
     K02S00V  C2002 09 24.25485 20 36 56.11 -15 33 05.1          17.4        644
     K02S00V  C2002 09 24.26668 20 36 57.78 -15 31 40.7          17.3        644
     K02S00V  C2002 09 24.27961 20 36 59.64 -15 30 08.0          17.8        644

Observer details:
608 Haleakala-NEAT/MSSS.  Observers E. F. Helin, S. Pravdo, K. Lawrence,
    P. Kervin, R. Maeda, J. Africano, M. Hicks.  1.2-m reflector + CCD.
644 Palomar Mountain/NEAT.  Observers E. F. Helin, S. Pravdo, K. Lawrence,
    M. Hicks, R. Thicksten.  1.2-m Schmidt + CCD.
649 Powell Observatory, Louisburg.  Observers K. Smalley, M. Glaze,
    R. Trentman.  0.75-m Newtonian + CCD.
673 Table Mountain Observatory, Wrightwood.  Observer J. Young.  Measurer
    M. Hicks.  0.6-m reflector + CCD.
734 Farpoint Observatory.  Observer G. Hug.  0.30-m Schmidt-Cassegrain + CCD.

Orbital elements:
2002 SV
Epoch 2002 Sept. 23.0 TT = JDT 2452540.5                MPC
M   7.16456              (2000.0)            P               Q
n   0.48495292     Peri.  345.93480     +0.93238950     +0.35978054
a   1.6044875      Node   352.69001     -0.29958438     +0.71541572
e   0.3153689      Incl.   15.85099     -0.20223507     +0.59894766
P   2.03           H   19.7           G   0.15
From 24 observations 2002 Sept. 23-24.

Ephemeris:
2002 SV                  a,e,i = 1.60, 0.32, 16                  q = 1.0985
Date    TT    R. A. (2000) Decl.     Delta      r     Elong.  Phase     V
2002 09 23    20 33.60   -18 03.5    0.161    1.107   126.4    46.8    17.7
2002 10 03    20 59.26   -00 08.1    0.188    1.122   125.9    46.3    18.1
2002 10 13    21 23.61   +12 20.1    0.232    1.143   123.7    46.6    18.6
2002 10 23    21 47.80   +20 25.2    0.287    1.171   121.5    46.4    19.1
2002 11 02    22 12.37   +25 38.9    0.349    1.203   119.6    45.8    19.6
2002 11 12    22 37.76   +29 05.8    0.417    1.240   117.8    44.9    20.0
2002 11 22    23 04.04   +31 26.8    0.490    1.280   115.9    44.0    20.4
2002 12 02    23 31.07   +33 05.3    0.569    1.322   113.7    43.0    20.7
2002 12 12    23 58.78   +34 16.5    0.654    1.366   111.3    42.2    21.1
2002 12 22    00 26.96   +35 10.0    0.746    1.411   108.6    41.4    21.4
2003 01 01    00 55.41   +35 51.1    0.843    1.456   105.5    40.6    21.7
2003 01 11    01 24.02   +36 23.1    0.947    1.501   102.1    39.8    22.0
2003 01 21    01 52.66   +36 47.9    1.057    1.545    98.4    39.0    22.3

Timothy B. Spahr             (C) Copyright 2002 MPC           M.P.E.C. 2002-S43

Read MPEC 2002-S42 Read MPEC 2002-S44


Our Web policy. Index to the CBAT/MPC/ICQ pages.


Valid HTML 4.01!